Weather History for Skagway, AK

Change the Weather History Date:

Saturday, September 20, 2014

  Actual Average Record
Temperature  
Mean Temperature 52 °F -  
Max Temperature 57 °F 52 °F 64 °F (1969)
Min Temperature 46 °F 43 °F 37 °F (2000)
Degree Days  
Heating Degree Days 14    
Growing Degree Days 2 (Base 50)    
Moisture  
Dew Point 46 °F    
Average Humidity 90    
Maximum Humidity 97    
Minimum Humidity 69    
Precipitation  
Precipitation 0.35 in - - ()
Sea Level Pressure  
Sea Level Pressure 29.73 in    
Wind  
Wind Speed 3 mph (NE)    
Max Wind Speed 13 mph    
Max Gust Speed 22 mph    
Visibility 5 miles    
Events Rain    
Averages and records for this station are not official NWS values.
T = Trace of Precipitation, MM = Missing Value Source: NWS Daily Summary

Daily Weather History Graph

Daily Weather History Graph

Search for Another Location

Airport:

Trip Planner

Search our weather history database for the weather conditions in past years. The results will help you decide how hot, cold, wet, or windy it might be!

Date:

Astronomy

Sep. 20, 2014 Rise Set
Actual Time 6:41 AM AKDT 7:06 PM AKDT
Civil Twilight 6:00 AM AKDT 7:47 PM AKDT
Nautical Twilight 5:10 AM AKDT 8:36 PM AKDT
Astronomical Twilight 4:16 AM AKDT 9:30 PM AKDT
Moon 2:49 AM AKDT (9/20) 5:44 PM AKDT (9/20)
Length of Visible Light 13h 46m
Length of Day
12h 24m
Waning Crescent, 11% of the Moon is Illuminated
Sep 20
Waning Crescent
Sep 23
New
Oct 1
First Quarter
Oct 8
Full
Oct 15
Last Quarter

Hourly Weather History & Observations

Time (AKDT) Temp. Dew Point Humidity Pressure Visibility Wind Dir Wind Speed Gust Speed Precip Events Conditions
12:53 AM 55.9 °F 46.9 °F 72% 29.79 in 10.0 mi SSW 12.7 mph 21.9 mph N/A   Overcast
1:53 AM 57.0 °F 46.9 °F 69% 29.77 in 10.0 mi SSW 9.2 mph - N/A   Overcast
2:53 AM 54.0 °F 46.9 °F 77% 29.76 in 10.0 mi NE 4.6 mph - N/A   Mostly Cloudy
3:53 AM 52.0 °F 46.9 °F 83% 29.75 in 8.0 mi NNE 3.5 mph - 0.01 in Rain Light Rain
4:53 AM 51.1 °F 48.0 °F 89% 29.73 in 10.0 mi Calm Calm - 0.02 in Rain Light Rain
5:53 AM 50.0 °F 48.0 °F 93% 29.71 in 10.0 mi Calm Calm - 0.00 in   Overcast
6:43 AM 50.0 °F 46.9 °F 89% 29.68 in 2.5 mi Calm Calm - N/A   Overcast
6:47 AM 50.0 °F 48.2 °F 94% 29.68 in 4.0 mi Calm Calm - N/A   Overcast
6:53 AM 50.0 °F 48.0 °F 93% 29.68 in 10.0 mi Calm Calm - 0.00 in Rain Light Rain
7:53 AM 50.0 °F 46.9 °F 89% 29.65 in 7.0 mi Calm Calm - 0.03 in Rain Light Rain
8:53 AM 50.0 °F 46.9 °F 89% 29.66 in 7.0 mi Calm Calm - 0.03 in Rain Light Rain
9:09 AM 48.9 °F 46.9 °F 93% 29.65 in 2.0 mi Calm Calm - 0.05 in Rain Rain
9:40 AM 50.0 °F 48.0 °F 93% 29.67 in 4.0 mi Calm Calm - 0.13 in Rain Light Rain
9:53 AM 50.0 °F 48.0 °F 93% 29.66 in 4.0 mi Calm Calm - 0.15 in Rain Light Rain
10:53 AM 48.9 °F 45.0 °F 86% 29.66 in 4.0 mi NE 9.2 mph - 0.05 in Rain Light Rain
11:53 AM 50.0 °F 45.0 °F 83% 29.69 in 5.0 mi ENE 9.2 mph - 0.02 in Rain Light Rain
12:19 PM 48.9 °F 44.1 °F 83% 29.69 in 6.0 mi North 5.8 mph - 0.01 in Rain Light Rain
12:53 PM 50.0 °F 44.1 °F 80% 29.68 in 8.0 mi NNE 4.6 mph - 0.01 in   Overcast
1:00 PM 50.0 °F 44.1 °F 80% 29.69 in 10.0 mi NE 3.5 mph - N/A   Overcast
1:53 PM 50.0 °F 46.0 °F 86% 29.71 in 3.0 mi Calm Calm - 0.00 in Rain Light Rain
2:23 PM 48.9 °F 45.0 °F 86% 29.71 in 2.5 mi Calm Calm - 0.01 in Rain Light Rain
2:30 PM 48.9 °F 46.0 °F 90% 29.70 in 3.0 mi Calm Calm - 0.01 in Rain Light Rain
2:53 PM 48.9 °F 46.0 °F 90% 29.71 in 4.0 mi Calm Calm - 0.02 in Rain Light Rain
3:53 PM 48.0 °F 45.0 °F 89% 29.75 in 10.0 mi Calm Calm - 0.00 in   Overcast
4:34 PM 48.9 °F 46.0 °F 90% 29.74 in 10.0 mi Calm Calm - N/A   Overcast
4:53 PM 48.9 °F 46.0 °F 90% 29.73 in 10.0 mi Calm Calm - N/A   Overcast
5:53 PM 46.9 °F 45.0 °F 93% 29.74 in 3.0 mi SW 3.5 mph - 0.00 in   Overcast
5:58 PM 46.9 °F 45.0 °F 93% 29.74 in 2.5 mi Calm Calm - 0.00 in Rain Light Rain
6:12 PM 46.9 °F 45.0 °F 93% 29.75 in 2.0 mi Calm Calm - 0.00 in   Overcast
6:27 PM 46.9 °F 45.0 °F 93% 29.76 in 2.0 mi Calm Calm - 0.00 in   Overcast
6:30 PM 46.9 °F 45.0 °F 93% 29.76 in 1.2 mi SW 3.5 mph - 0.01 in   Overcast
6:53 PM 46.9 °F 45.0 °F 93% 29.76 in 1.0 mi Calm Calm - 0.01 in   Overcast
7:06 PM 48.0 °F 46.0 °F 93% 29.76 in 1.8 mi Calm Calm - N/A   Overcast
7:13 PM 48.0 °F 46.9 °F 96% 29.76 in 2.5 mi Calm Calm - N/A   Overcast
7:53 PM 48.9 °F 46.0 °F 90% 29.78 in 2.5 mi Calm Calm - N/A   Overcast
8:53 PM 48.9 °F 46.9 °F 93% 29.77 in 2.0 mi Calm Calm - N/A   Overcast
9:00 PM 48.0 °F 46.9 °F 96% 29.78 in 2.5 mi Calm Calm - N/A   Overcast
9:19 PM 48.0 °F 46.0 °F 93% 29.76 in 3.0 mi Calm Calm - N/A   Overcast
9:51 PM 48.2 °F 46.4 °F 93% 29.77 in 3.0 mi Calm Calm - N/A   Overcast
9:53 PM 48.0 °F 46.9 °F 96% 29.78 in 3.0 mi Calm Calm - N/A   Overcast
10:08 PM 46.9 °F 46.0 °F 97% 29.78 in 1.8 mi Calm Calm - N/A   Overcast
10:19 PM 48.0 °F 46.9 °F 96% 29.77 in 3.0 mi Calm Calm - N/A   Overcast
10:37 PM 48.0 °F 46.9 °F 96% 29.78 in 1.8 mi Calm Calm - N/A   Overcast
10:51 PM 48.2 °F 46.4 °F 93% 29.77 in 2.0 mi Calm Calm - N/A   Overcast
10:53 PM 48.0 °F 46.9 °F 96% 29.77 in 2.5 mi Calm Calm - N/A   Overcast
11:00 PM 48.9 °F 46.9 °F 93% 29.77 in 5.0 mi Calm Calm - N/A   Overcast
11:12 PM 48.0 °F 46.9 °F 96% 29.75 in 2.0 mi Calm Calm - N/A   Overcast
11:17 PM 48.0 °F 46.0 °F 93% 29.77 in 3.0 mi Calm Calm - N/A   Overcast
11:24 PM 48.0 °F 46.9 °F 96% 29.77 in 4.0 mi Calm Calm - N/A   Overcast
11:36 PM 48.9 °F 46.9 °F 93% 29.76 in 8.0 mi Calm Calm - N/A   Overcast
11:53 PM 48.0 °F 46.9 °F 96% 29.75 in 4.0 mi Calm Calm - N/A   Overcast
11:58 PM 48.0 °F 46.9 °F 96% 29.75 in 1.8 mi Calm Calm - N/A   Overcast